Location: Andershausen
(51.8462°N, 9.8595°E)
Time: 23:41:40
(UTC+00:00)

YAOGAN 1 - Pass Details

Date: 18 November 2025
Orbit: 605 x 607 km, 97.8° (Epoch: 04 December)

Event Time Altitude Azimuth Distance (km) Brightness Sun altitude
Rises 16:42:57 0° 135° (SE) 2,858 5.7 -11.7°
Reaches altitude 10° 16:45:19 10° 125° (SE) 1,958 4.8 -12.1°
Maximum altitude 16:49:01 30° 65° (ENE) 1,105 3.3 -12.6°
Drops below altitude 10° 16:52:44 10° 4° (N) 1,970 5.0 -13.2°
Sets 16:55:07 0° 354° (N) 2,878 5.9 -13.5°
